Voltar ao catálogo

STARLINK-36822

AtivoComunicaçõesVLEO
NORAD 67909·PAYLOAD·🇺🇸 United States

Lançado Feb 22, 2026 de Vandenberg Space Force Base

Loading…

Próximas Passagens (próximas 24 horas)

TLE

AtualizadoSource: CelesTrak SupGP

Época: Sep 14, 2026, 22:30 UTC

1 67909C 26036F   26257.93798611  .00039311  00000+0  14239-2 0  2578
2 67909  42.9998 256.6632 0001465 265.4838  79.3763 15.27557456    19

Acompanhe STARLINK-36822 em tempo real com AllMySat

Download on the App Store